OM6ACB-6 Weather Reports


Display with metric or nautical units.
time (UTC)temp
F
wind
direction
speed
MPH
gust
MPH
rain 1hr
in
rain 24hr
in
rain mn
in
humidity
%
barometer
mb
20260902122404 76 314 0.0 0.0 0.00 0.00 0.00 20 1025.6
20260902121404 73 281 0.0 2.0 0.00 0.00 0.00 21 1025.5
20260902120404 74 314 0.0 1.0 0.00 0.00 0.00 21 1025.6
20260902115403 74 314 0.0 2.0 0.00 0.00 0.00 21 1025.6
20260902114403 74 2 1.0 3.0 0.00 0.00 0.00 21 1025.7
20260902113403 76 85 3.0 4.0 0.00 0.00 0.00 20 1025.9
20260902112402 77 98 3.0 5.0 0.00 0.00 0.00 20 1026.2
20260902111402 76 102 1.0 3.0 0.00 0.00 0.00 20 1025.9
20260902110402 74 49 3.0 4.0 0.00 0.00 0.00 21 1026.0
20260902105402 75 64 1.0 3.0 0.00 0.00 0.00 21 1026.4
20260902104401 74 62 1.0 3.0 0.00 0.00 0.00 21 1026.4
20260902103401 75 357 1.0 3.0 0.00 0.00 0.00 21 1026.6
20260902102401 72 326 1.0 3.0 0.00 0.00 0.00 21 1026.3
20260902101400 74 322 0.0 2.0 0.00 0.00 0.00 21 1026.7
20260902100400 71 0 0.0 0.0 0.00 0.00 0.00 22 1026.5
20260902095400 69 268 0.0 1.0 0.00 0.00 0.00 22 1026.4
20260902094359 68 238 0.0 1.0 0.00 0.00 0.00 23 1026.5
20260902093359 69 294 0.0 2.0 0.00 0.00 0.00 22 1026.5
20260902092359 69 0 0.0 0.0 0.00 0.00 0.00 22 1026.6
20260902091359 66 304 0.0 2.0 0.00 0.00 0.00 23 1026.4
20260902090358 66 277 0.0 3.0 0.00 0.00 0.00 23 1026.5
20260902085358 65 278 1.0 4.0 0.00 0.00 0.00 23 1026.4
20260902084358 71 288 1.0 5.0 0.00 0.00 0.00 22 1026.9
20260902083357 67 304 1.0 5.0 0.00 0.00 0.00 23 1026.9
20260902082357 72 341 1.0 3.0 0.00 0.00 0.00 22 1026.6
20260902081357 65 327 2.0 4.0 0.00 0.00 0.00 23 1026.5
20260902080357 68 349 0.0 3.0 0.00 0.00 0.00 22 1026.8
20260902075356 66 53 0.0 2.0 0.00 0.00 0.00 23 1026.6
20260902074356 64 90 0.0 2.0 0.00 0.00 0.00 24 1026.2
20260902073356 60 49 1.0 3.0 0.00 0.00 0.00 25 1026.0
20260902072355 61 85 0.0 2.0 0.00 0.00 0.00 24 1026.1
20260902071355 58 75 1.0 3.0 0.00 0.00 0.00 25 1025.7
20260902070355 57 70 1.0 4.0 0.00 0.00 0.00 25 1025.5
20260902065354 57 90 0.0 1.0 0.00 0.00 0.00 25 1025.4
20260902064354 57 62 0.0 2.0 0.00 0.00 0.00 26 1025.4
20260902063354 56 0 0.0 0.0 0.00 0.00 0.00 26 1025.3
20260902062354 54 0 0.0 0.0 0.00 0.00 0.00 26 1025.1
20260902061353 53 0 0.0 0.0 0.00 0.00 0.00 27 1025.1
20260902060353 52 0 0.0 0.0 0.00 0.00 0.00 27 1025.1
20260902055353 53 0 0.0 0.0 0.00 0.00 0.00 27 1025.1
20260902054352 53 0 0.0 0.0 0.00 0.00 0.00 27 1025.1
20260902053352 54 1 0.0 0.0 0.00 0.00 0.00 27 1025.2
20260902052352 52 0 0.0 0.0 0.00 0.00 0.00 27 1025.0
20260902051352 54 0 0.0 0.0 0.00 0.00 0.00 26 1025.1
20260902050351 51 0 0.0 0.0 0.00 0.00 0.00 27 1024.8
20260902045351 49 0 0.0 0.0 0.00 0.00 0.00 38 1024.5
20260902044351 46 0 0.0 0.0 0.00 0.00 0.00 45 1024.2
20260902043350 47 0 0.0 0.0 0.00 0.00 0.00 57 1024.2
20260902042350 45 0 0.0 0.0 0.00 0.00 0.00 61 1024.0
20260902041350 46 0 0.0 0.0 0.00 0.00 0.00 61 1024.0
20260902040350 46 0 0.0 0.0 0.00 0.00 0.00 62 1024.1
20260902035349 45 0 0.0 0.0 0.00 0.00 0.00 62 1024.1
20260902034349 45 0 0.0 0.0 0.00 0.00 0.00 62 1024.0
20260902033349 45 0 0.0 0.0 0.00 0.00 0.00 62 1023.9
20260902032348 45 0 0.0 0.0 0.00 0.00 0.00 61 1023.9
20260902031348 44 45 0.0 0.0 0.00 0.00 0.00 61 1023.9
20260902030348 46 45 0.0 0.0 0.00 0.00 0.00 62 1024.0
20260902025347 45 0 0.0 0.0 0.00 0.00 0.00 62 1024.0
20260902024347 45 0 0.0 0.0 0.00 0.00 0.00 61 1024.0
20260902023347 45 0 0.0 0.0 0.00 0.00 0.00 61 1024.0
20260902022347 45 0 0.0 0.0 0.00 0.00 0.00 61 1023.9
20260902021346 45 0 0.0 0.0 0.00 0.00 0.00 60 1023.9
20260902020346 46 0 0.0 0.0 0.00 0.00 0.00 60 1024.0
20260902015346 45 0 0.0 0.0 0.00 0.00 0.00 58 1024.0
20260902014345 46 0 0.0 0.0 0.00 0.00 0.00 58 1024.0
20260902013345 45 0 0.0 0.0 0.00 0.00 0.00 56 1023.9
20260902012345 45 0 0.0 0.0 0.00 0.00 0.00 53 1023.8
20260902011345 46 0 0.0 0.0 0.00 0.00 0.00 57 1023.9
20260902010349 46 0 0.0 0.0 0.00 0.00 0.00 57 1023.9
20260902005344 47 0 0.0 0.0 0.00 0.00 0.00 53 1023.8
20260902004344 47 0 0.0 0.0 0.00 0.00 0.00 56 1024.0
20260902003343 47 0 0.0 0.0 0.00 0.00 0.00 59 1023.9
20260902002343 47 0 0.0 0.0 0.00 0.00 0.00 59 1023.8
20260902001343 46 0 0.0 0.0 0.00 0.00 0.00 59 1023.8
20260902000344 46 0 0.0 0.0 0.00 0.00 0.00 59 1023.7
20260901235342 46 0 0.0 0.0 0.00 0.00 0.00 58 1023.7
20260901234342 46 0 0.0 0.0 0.00 0.00 0.00 55 1023.7
20260901233342 47 0 0.0 0.0 0.00 0.00 0.00 54 1023.7
20260901232341 47 0 0.0 0.0 0.00 0.00 0.00 53 1023.7
20260901231341 47 0 0.0 0.0 0.00 0.00 0.00 50 1023.5
20260901230341 47 0 0.0 0.0 0.00 0.00 0.00 45 1023.5
20260901225340 47 0 0.0 0.0 0.00 0.00 0.00 43 1023.7
20260901224340 48 0 0.0 0.0 0.00 0.00 0.00 41 1023.8
20260901223340 48 0 0.0 0.0 0.00 0.00 0.00 40 1023.7
20260901222340 48 0 0.0 0.0 0.00 0.00 0.00 37 1023.7
20260901221339 48 0 0.0 0.0 0.00 0.00 0.00 37 1023.7
20260901220339 49 1 0.0 1.0 0.00 0.00 0.00 32 1023.6
20260901215339 50 90 0.0 0.0 0.00 0.00 0.00 27 1023.7
20260901214338 50 90 0.0 1.0 0.00 0.00 0.00 32 1023.7
20260901213338 50 0 0.0 0.0 0.00 0.00 0.00 30 1023.5
20260901212338 50 45 0.0 0.0 0.00 0.00 0.00 28 1023.6
20260901211338 50 314 0.0 0.0 0.00 0.00 0.00 27 1023.6
20260901210337 51 0 0.0 0.0 0.00 0.00 0.00 27 1023.6
20260901205337 51 0 0.0 0.0 0.00 0.00 0.00 27 1023.5
20260901204337 52 314 0.0 1.0 0.00 0.00 0.00 27 1023.6
20260901203336 54 0 0.0 0.0 0.00 0.00 0.00 27 1023.6
20260901202336 53 0 0.0 0.0 0.00 0.00 0.00 27 1023.6
20260901201336 54 0 0.0 0.0 0.00 0.00 0.00 27 1023.6
20260901200336 54 0 0.0 0.0 0.00 0.00 0.00 26 1023.7
20260901195335 53 118 0.0 1.0 0.00 0.00 0.00 27 1023.7
20260901194335 55 181 0.0 1.0 0.00 0.00 0.00 26 1023.7
20260901193335 55 0 0.0 0.0 0.00 0.00 0.00 26 1023.8
20260901192334 55 0 0.0 0.0 0.00 0.00 0.00 26 1023.9
20260901191334 55 0 0.0 0.0 0.00 0.00 0.00 26 1023.8
20260901190334 56 0 0.0 0.0 0.00 0.00 0.00 26 1023.7
20260901185333 57 0 0.0 0.0 0.00 0.00 0.00 26 1023.7
20260901184333 57 0 0.0 0.0 0.00 0.00 0.00 26 1023.6
20260901183333 57 0 0.0 0.0 0.00 0.00 0.00 26 1023.6
20260901182333 59 165 0.0 2.0 0.00 0.00 0.00 25 1023.6
20260901181332 60 181 0.0 0.0 0.00 0.00 0.00 25 1023.6
20260901180332 60 0 0.0 0.0 0.00 0.00 0.00 25 1023.4
20260901175332 60 181 0.0 0.0 0.00 0.00 0.00 25 1023.5
20260901174331 63 181 0.0 2.0 0.00 0.00 0.00 24 1023.7
20260901173331 64 181 0.0 2.0 0.00 0.00 0.00 24 1023.7
20260901172331 65 172 0.0 3.0 0.00 0.00 0.00 23 1023.8
20260901171331 65 0 0.0 0.0 0.00 0.00 0.00 23 1023.7
20260901170330 65 0 0.0 0.0 0.00 0.00 0.00 23 1023.8
20260901165330 66 0 0.0 0.0 0.00 0.00 0.00 23 1023.8
20260901164330 68 0 0.0 0.0 0.00 0.00 0.00 23 1023.9
20260901163329 69 187 0.0 3.0 0.00 0.00 0.00 22 1023.9
20260901162329 70 190 1.0 3.0 0.00 0.00 0.00 22 1023.9
20260901161329 70 193 1.0 4.0 0.00 0.00 0.00 22 1024.0
20260901160328 73 200 1.0 4.0 0.00 0.00 0.00 21 1024.3
20260901155328 76 214 3.0 4.0 0.00 0.00 0.00 20 1024.4
20260901154328 72 169 2.0 4.0 0.00 0.00 0.00 21 1024.0
20260901153328 79 194 2.0 5.0 0.00 0.00 0.00 20 1024.4
20260901152327 79 185 2.0 7.0 0.00 0.00 0.00 20 1024.4
20260901151327 76 191 2.0 4.0 0.00 0.00 0.00 20 1024.3
20260901150327 72 170 3.0 5.0 0.00 0.00 0.00 21 1023.9
20260901145326 74 210 4.0 8.0 0.00 0.00 0.00 21 1023.9
20260901144326 79 201 4.0 8.0 0.00 0.00 0.00 20 1024.3
20260901143326 79 182 4.0 9.0 0.00 0.00 0.00 20 1024.2
20260901142326 79 241 3.0 6.0 0.00 0.00 0.00 20 1024.2
20260901141325 77 205 4.0 7.0 0.00 0.00 0.00 20 1024.2
20260901140325 77 204 3.0 6.0 0.00 0.00 0.00 20 1023.8
20260901135325 74 175 2.0 4.0 0.00 0.00 0.00 21 1023.8
20260901134325 75 212 3.0 6.0 0.00 0.00 0.00 21 1023.9
20260901133324 73 203 3.0 5.0 0.00 0.00 0.00 21 1023.9
20260901132324 74 206 5.0 9.0 0.00 0.00 0.00 21 1024.2
20260901131324 80 158 3.0 8.0 0.00 0.00 0.00 20 1024.4
20260901130323 72 200 4.0 8.0 0.00 0.00 0.00 21 1023.8
20260901125323 73 188 4.0 8.0 0.00 0.00 0.00 21 1023.9
20260901124325 74 173 2.0 4.0 0.00 0.00 0.00 21 1024.0